Date,TemperatureHighF,TemperatureAvgF,TemperatureLowF,DewpointHighF,DewpointAvgF,DewpointLowF,HumidityHigh,HumidityAvg,HumidityLow,PressureMaxIn,PressureMinIn,WindSpeedMaxMPH,WindSpeedAvgMPH,GustSpeedMaxMPH,PrecipitationSumIn
2013-6-1,79.7,70.9,63.3,64.0,62.8,60.0,96,77,56,30.27,30.18,5,1,13,0.02
2013-6-2,75.0,67.1,64.1,69.0,65.3,63.0,98,94,80,30.21,30.06,4,0,7,2.94
2013-6-3,79.4,68.6,61.9,68.0,63.6,62.0,99,85,61,30.12,30.00,4,0,7,0.00
2013-6-4,81.6,69.4,59.8,68.0,62.2,58.0,98,80,48,30.23,30.11,6,0,8,0.00
2013-6-5,80.5,70.0,64.0,68.0,64.6,62.0,97,84,60,30.23,30.09,5,0,10,0.61
2013-6-6,75.2,68.1,62.7,68.0,65.0,62.0,98,90,75,30.12,29.93,4,0,7,0.04
2013-6-7,80.1,69.0,63.4,70.0,65.5,63.0,98,89,65,29.98,29.83,2,0,5,0.43
2013-6-8,81.2,70.7,62.7,69.0,64.4,61.0,98,82,53,30.24,29.98,4,0,8,0.11
2013-6-9,80.6,68.7,61.3,71.0,65.5,61.0,98,90,64,30.30,30.18,4,0,11,1.41
2013-6-10,76.2,69.3,65.0,67.0,65.6,63.0,97,88,67,30.18,30.06,7,1,17,1.18
2013-6-11,86.5,73.2,61.9,69.0,63.5,57.0,99,75,39,30.18,30.08,4,1,7,0.01
2013-6-12,90.7,73.5,60.4,75.0,67.2,60.0,98,82,50,30.20,30.11,3,0,6,0.00
2013-6-13,88.8,72.6,62.0,70.0,64.6,61.0,97,80,40,30.11,29.91,12,1,15,0.08
2013-6-14,81.6,69.3,57.4,65.0,56.4,51.0,98,68,38,30.20,29.98,5,1,9,0.01
2013-6-15,80.9,66.8,50.3,62.0,57.2,50.0,98,74,48,30.29,30.21,6,1,8,0.00
2013-6-16,83.0,70.1,55.8,66.0,61.5,55.0,98,77,51,30.29,30.18,5,1,14,0.00
2013-6-17,81.8,71.2,66.7,72.0,67.2,65.0,97,87,66,30.21,30.10,4,0,8,0.13
2013-6-18,78.6,69.8,62.5,70.0,66.2,61.0,97,89,69,30.12,29.97,5,1,9,0.06
2013-6-19,78.3,68.7,59.2,66.0,61.8,59.0,98,80,57,30.27,30.08,6,0,8,0.00
2013-6-20,78.4,67.3,59.1,67.0,62.1,58.0,98,85,57,30.39,30.27,4,0,9,0.00
2013-6-21,81.2,69.0,59.9,65.0,60.9,58.0,98,78,49,30.42,30.32,8,1,8,0.00
2013-6-22,82.3,69.0,57.3,63.0,58.1,49.0,98,73,33,30.39,30.27,4,0,8,0.00
2013-6-23,82.3,68.6,57.1,70.0,63.4,56.0,98,85,55,30.37,30.28,4,0,5,0.26
2013-6-24,80.7,71.4,64.1,73.0,67.2,64.0,98,87,65,30.37,30.26,3,0,7,0.12
2013-6-25,84.8,70.6,62.6,71.0,66.2,62.0,98,87,55,30.31,30.20,3,0,7,0.51
2013-6-26,86.3,72.7,63.4,73.0,66.8,63.0,99,84,54,30.22,30.09,5,0,8,0.00
2013-6-27,86.9,74.6,65.8,73.0,67.8,65.0,98,81,52,30.13,29.91,7,1,10,0.17
2013-6-28,88.6,73.7,63.3,71.0,66.2,61.0,98,81,41,30.00,29.80,7,1,14,0.09
2013-6-29,85.8,72.3,62.4,69.0,62.7,55.0,98,76,37,29.88,29.80,4,0,9,0.00
2013-6-30,84.8,70.6,57.5,66.0,61.3,57.0,97,76,41,29.97,29.86,5,1,10,0.00